Location: Lafig�re
(44.4503°N, 4.0357°E)
Time: 15:11:02
(UTC+00:00)

S-56A Canister/Altair - Pass Details

Date: 24 January 2021
Orbit: 631 x 2501 km, 38.9° (Epoch: 01 March)

Event Time Altitude Azimuth Distance (km) Brightness Sun altitude
Rises 07:08:38 0° 269° (W) 3,126 10.1 -1.1°
Reaches altitude 10° 07:11:11 10° 254° (WSW) 2,352 9.6 -0.7°
Maximum altitude 07:15:28 24° 202° (SSW) 1,866 9.6 0.0°
Drops below altitude 10° 07:21:01 10° 152° (SSE) 3,119 11.7 0.9°
Sets 07:25:02 0° 140° (SE) 4,437 13.0 1.5°
